Soldotna, AK

5:16 AM AKST on February 12, 2016 (GMT -0900)
Soldotna

Weather History for PASX - July, 2011

Change the Weather History Date:

Thursday, July 28, 2011

  Actual Average Record
Temperature  
Mean Temperature 53 °F -  
Max Temperature 64 °F 61 °F 72 °F (1977)
Min Temperature 42 °F 46 °F -3 °F (1971)
Degree Days  
Heating Degree Days 12    
Growing Degree Days 3 (Base 50)    
Moisture  
Dew Point 47 °F    
Average Humidity 76    
Maximum Humidity 100    
Minimum Humidity 59    
Precipitation  
Precipitation 0.00 in - - ()
Sea Level Pressure  
Sea Level Pressure 29.87 in    
Wind  
Wind Speed 5 mph (West)    
Max Wind Speed 14 mph    
Max Gust Speed -    
Visibility 10 miles    
Events      
Averages and records for this station are not official NWS values.
T = Trace of Precipitation, MM = Missing Value Source: NWS Daily Summary

Daily Weather History Graph

Daily Weather History Graph

Search for Another Location

Airport or City:

Trip Planner

Search our weather history database for the weather conditions in past years. The results will help you decide how hot, cold, wet, or windy it might be!

Date:

Astronomy

Jul. 28, 2011 Rise Set
Actual Time 5:31 AM AKDT 10:47 PM AKDT
Civil Twilight 4:25 AM AKDT 11:53 PM AKDT
Nautical Twilight 2:43 AM AKDT 1:38 AM AKDT
Astronomical Twilight Sun does not rise Sun does not rise
Moon 3:00 AM AKDT (7/28) 9:29 PM AKDT (7/28)
Length of Visible Light 19h 27m
Length of Day
17h 15m
Waning Crescent, 5% of the Moon is Illuminated
Jul 28
Waning Crescent
Jul 30
New
Aug 6
First Quarter
Aug 13
Full
Aug 21
Last Quarter

Hourly Weather History & Observations

Time (AKDT) Temp. Windchill Dew Point Humidity Pressure Visibility Wind Dir Wind Speed Gust Speed Precip Events Conditions
12:16 AM 53.6 °F - 48.2 °F 82% 29.86 in 10.0 mi South 3.5 mph - N/A   Clear
12:36 AM 53.6 °F - 46.4 °F 77% 29.86 in 10.0 mi SSW 4.6 mph - N/A   Clear
12:56 AM 53.6 °F - 46.4 °F 77% 29.86 in 10.0 mi South 5.8 mph - N/A   Clear
1:16 AM 51.8 °F - 46.4 °F 82% 29.86 in 10.0 mi South 5.8 mph - N/A   Clear
1:36 AM 51.8 °F - 46.4 °F 82% 29.86 in 10.0 mi South 3.5 mph - N/A   Clear
1:56 AM 48.2 °F - 46.4 °F 93% 29.86 in 10.0 mi SSE 3.5 mph - N/A   Clear
2:16 AM 50.0 °F - 46.4 °F 87% 29.87 in 10.0 mi Calm Calm - N/A   Clear
2:36 AM 48.2 °F - 44.6 °F 87% 29.87 in 10.0 mi Calm Calm - N/A   Partly Cloudy
2:56 AM 48.2 °F - 46.4 °F 93% 29.87 in 10.0 mi Calm Calm - N/A   Clear
3:16 AM 48.2 °F - 46.4 °F 93% 29.87 in 10.0 mi SSE 4.6 mph - N/A   Clear
3:36 AM 48.2 °F - 46.4 °F 93% 29.87 in 10.0 mi Calm Calm - N/A   Clear
3:56 AM 44.6 °F 43.1 °F 42.8 °F 93% 29.87 in 10.0 mi SE 3.5 mph - N/A   Mostly Cloudy
4:16 AM 44.6 °F - 42.8 °F 93% 29.87 in 10.0 mi Calm Calm - N/A   Overcast
4:36 AM 46.4 °F 45.2 °F 44.6 °F 93% 29.87 in 10.0 mi ENE 3.5 mph - N/A   Overcast
4:56 AM 44.6 °F 41.4 °F 42.8 °F 93% 29.88 in 10.0 mi East 5.8 mph - N/A   Overcast
5:16 AM 44.6 °F 43.1 °F 44.6 °F 100% 29.88 in 10.0 mi East 3.5 mph - N/A   Overcast
5:36 AM 44.6 °F 43.1 °F 42.8 °F 93% 29.88 in 10.0 mi East 3.5 mph - N/A   Scattered Clouds
5:56 AM 44.6 °F - 42.8 °F 93% 29.88 in 10.0 mi Calm Calm - N/A   Clear
6:16 AM 42.8 °F - 41.0 °F 93% 29.88 in 10.0 mi Calm Calm - N/A   Clear
6:36 AM 42.8 °F 41.1 °F 42.8 °F 100% 29.88 in 10.0 mi East 3.5 mph - N/A   Clear
6:56 AM 42.8 °F 41.1 °F 42.8 °F 100% 29.88 in 10.0 mi East 3.5 mph - N/A   Clear
7:16 AM 44.6 °F - 42.8 °F 93% 29.88 in 10.0 mi Calm Calm - N/A   Clear
7:36 AM 46.4 °F 44.3 °F 44.6 °F 93% 29.88 in 10.0 mi East 4.6 mph - N/A   Clear
7:56 AM 48.2 °F - 44.6 °F 87% 29.88 in 10.0 mi ENE 3.5 mph - N/A   Clear
8:16 AM 50.0 °F - 46.4 °F 87% 29.88 in 10.0 mi Calm Calm - N/A   Clear
8:36 AM 51.8 °F - 46.4 °F 82% 29.88 in 10.0 mi Calm Calm - N/A   Clear
8:56 AM 53.6 °F - 48.2 °F 82% 29.88 in 10.0 mi Calm Calm - N/A   Clear
9:16 AM 55.4 °F - 48.2 °F 77% 29.88 in 10.0 mi Calm Calm - N/A   Clear
9:36 AM 57.2 °F - 46.4 °F 67% 29.88 in 10.0 mi Calm Calm - N/A   Clear
9:56 AM 57.2 °F - 48.2 °F 72% 29.88 in 10.0 mi NW 4.6 mph - N/A   Clear
10:16 AM 59.0 °F - 48.2 °F 67% 29.88 in 10.0 mi NNW 4.6 mph - N/A   Clear
10:36 AM 59.0 °F - 46.4 °F 63% 29.88 in 10.0 mi NNW 3.5 mph - N/A   Clear
10:56 AM 60.8 °F - 48.2 °F 63% 29.88 in 10.0 mi West 4.6 mph - N/A   Clear
11:16 AM 60.8 °F - 48.2 °F 63% 29.88 in 10.0 mi West 5.8 mph - N/A   Clear
11:36 AM 60.8 °F - 48.2 °F 63% 29.88 in 10.0 mi WNW 4.6 mph - N/A   Clear
11:56 AM 60.8 °F - 50.0 °F 68% 29.88 in 10.0 mi West 5.8 mph - N/A   Clear
12:16 PM 62.6 °F - 50.0 °F 63% 29.88 in 10.0 mi West 5.8 mph - N/A   Clear
12:36 PM 62.6 °F - 50.0 °F 63% 29.88 in 10.0 mi West 6.9 mph - N/A   Clear
12:56 PM 62.6 °F - 51.8 °F 68% 29.88 in 10.0 mi WNW 6.9 mph - N/A   Clear
1:16 PM 62.6 °F - 48.2 °F 59% 29.87 in 10.0 mi WSW 6.9 mph - N/A   Clear
1:36 PM 62.6 °F - 50.0 °F 63% 29.88 in 10.0 mi WNW 9.2 mph - N/A   Clear
1:56 PM 64.4 °F - 50.0 °F 59% 29.88 in 10.0 mi West 9.2 mph - N/A   Clear
2:16 PM 62.6 °F - 50.0 °F 63% 29.88 in 10.0 mi West 12.7 mph - N/A   Clear
2:36 PM 62.6 °F - 51.8 °F 68% 29.87 in 10.0 mi West 10.4 mph - N/A   Clear
2:56 PM 62.6 °F - 51.8 °F 68% 29.87 in 10.0 mi West 11.5 mph - N/A   Clear
3:16 PM 62.6 °F - 51.8 °F 68% 29.87 in 10.0 mi West 9.2 mph - N/A   Clear
3:36 PM 62.6 °F - 51.8 °F 68% 29.87 in 10.0 mi WNW 11.5 mph - N/A   Clear
3:56 PM 62.6 °F - 50.0 °F 63% 29.87 in 10.0 mi West 10.4 mph - N/A   Clear
4:16 PM 62.6 °F - 50.0 °F 63% 29.87 in 10.0 mi West 13.8 mph - N/A   Clear
4:36 PM 62.6 °F - 50.0 °F 63% 29.87 in 10.0 mi WNW 12.7 mph - N/A   Clear
4:56 PM 62.6 °F - 48.2 °F 59% 29.87 in 10.0 mi West 12.7 mph - N/A   Clear
5:16 PM 62.6 °F - 50.0 °F 63% 29.87 in 10.0 mi West 11.5 mph - N/A   Clear
5:36 PM 62.6 °F - 50.0 °F 63% 29.86 in 10.0 mi West 12.7 mph - N/A   Clear
5:56 PM 62.6 °F - 48.2 °F 59% 29.86 in 10.0 mi WNW 11.5 mph - N/A   Clear
6:16 PM 60.8 °F - 48.2 °F 63% 29.86 in 10.0 mi WNW 12.7 mph - N/A   Clear
6:36 PM 62.6 °F - 48.2 °F 59% 29.86 in 10.0 mi WNW 9.2 mph - N/A   Clear
6:56 PM 62.6 °F - 48.2 °F 59% 29.86 in 10.0 mi West 11.5 mph - N/A   Clear
7:16 PM 62.6 °F - 48.2 °F 59% 29.86 in 10.0 mi West 9.2 mph - N/A   Clear
7:36 PM 60.8 °F - 48.2 °F 63% 29.86 in 10.0 mi WNW 10.4 mph - N/A   Clear
7:56 PM 60.8 °F - 50.0 °F 68% 29.87 in 10.0 mi NW 8.1 mph - N/A   Partly Cloudy
8:16 PM 60.8 °F - 50.0 °F 68% 29.87 in 10.0 mi West 5.8 mph - N/A   Partly Cloudy
8:36 PM 60.8 °F - 48.2 °F 63% 29.87 in 10.0 mi West 6.9 mph - N/A   Mostly Cloudy
8:56 PM 60.8 °F - 50.0 °F 68% 29.87 in 10.0 mi West 6.9 mph - N/A   Overcast
9:16 PM 59.0 °F - 50.0 °F 72% 29.87 in 10.0 mi West 8.1 mph - N/A   Mostly Cloudy
9:36 PM 59.0 °F - 48.2 °F 67% 29.88 in 10.0 mi West 4.6 mph - N/A   Scattered Clouds
9:56 PM 59.0 °F - 50.0 °F 72% 29.88 in 10.0 mi West 6.9 mph - N/A   Mostly Cloudy
10:16 PM 57.2 °F - 50.0 °F 77% 29.89 in 10.0 mi West 5.8 mph - N/A   Overcast
10:36 PM 57.2 °F - 48.2 °F 72% 29.89 in 10.0 mi West 5.8 mph - N/A   Overcast
10:56 PM 55.4 °F - 48.2 °F 77% 29.89 in 10.0 mi West 3.5 mph - N/A   Overcast
11:16 PM 55.4 °F - 48.2 °F 77% 29.90 in 10.0 mi Calm Calm - N/A   Overcast
11:36 PM 55.4 °F - 48.2 °F 77% 29.90 in 10.0 mi Calm Calm - N/A   Overcast
11:56 PM 55.4 °F - 48.2 °F 77% 29.90 in 10.0 mi Calm Calm - N/A   Mostly Cloudy